Indianapolis, IN

1:31 AM EST on November 14, 2019 (GMT -0500)
Indianapolis International

Weather History for KIND - May, 2019

Change the Weather History Date:

Tuesday, May 28, 2019

  Actual Average Record
Temperature  
Mean Temperature 79 °F 66 °F  
Max Temperature 86 °F 76 °F 96 °F (1911)
Min Temperature 72 °F 57 °F 39 °F (1907)
Degree Days  
Heating Degree Days 0 2  
Month to date heating degree days 125 135  
Since 1 July heating degree days 5376 5357  
Cooling Degree Days 14 4  
Month to date cooling degree days 91 57  
Year to date cooling degree days 92 72  
Growing Degree Days 29 (Base 50)    
Moisture  
Dew Point 66 °F    
Average Humidity 66    
Maximum Humidity 84    
Minimum Humidity 48    
Precipitation  
Precipitation 0.00 in 0.16 in 1.50 in (1912)
Month to date precipitation 3.85 4.58  
Year to date precipitation 21.33 16.93  
Snow  
Snow 0.00 in 0.00 in 0.00 in ()
Month to date snowfall 0.0 0.0  
Since 1 July snowfall 19.4 25.9  
Snow Depth 0.00 in    
Sea Level Pressure  
Sea Level Pressure 29.74 in    
Wind  
Wind Speed 14 mph (SW)    
Max Wind Speed 24 mph    
Max Gust Speed 32 mph    
Visibility 10 miles    
Events      
T = Trace of Precipitation, MM = Missing Value Source: NWS Daily Summary

Daily Weather History Graph

Daily Weather History Graph

Search for Another Location

Airport or City:

Astronomy

May. 28, 2019 Rise Set
Actual Time 6:21 AM EDT 9:04 PM EDT
Civil Twilight 5:49 AM EDT 9:35 PM EDT
Nautical Twilight 5:10 AM EDT 10:15 PM EDT
Astronomical Twilight 4:25 AM EDT 11:00 PM EDT
Moon 3:31 AM EDT (5/28) 3:14 PM EDT (5/28)
Length of Visible Light 15h 46m
Length of Day
14h 42m
Waning Crescent, 32% of the Moon is Illuminated
May 28
Waning Crescent
Jun 3
New
Jun 10
First Quarter
Jun 17
Full
Jun 25
Last Quarter

Hourly Weather History & Observations

Time (EDT) Temp. Heat Index Dew Point Humidity Pressure Visibility Wind Dir Wind Speed Gust Speed Precip Events Conditions
12:54 AM 75.0 °F - 66.9 °F 76% 29.76 in 10.0 mi SSW 9.2 mph - N/A   Overcast
1:54 AM 75.0 °F - 66.0 °F 73% 29.75 in 10.0 mi SSW 10.4 mph - N/A   Overcast
2:54 AM 75.0 °F - 64.9 °F 71% 29.74 in 10.0 mi SW 12.7 mph - N/A   Scattered Clouds
3:54 AM 73.9 °F - 64.9 °F 73% 29.73 in 10.0 mi SW 11.5 mph - N/A   Partly Cloudy
4:54 AM 73.0 °F - 66.0 °F 79% 29.75 in 10.0 mi SW 12.7 mph - N/A   Partly Cloudy
5:54 AM 72.0 °F - 66.0 °F 81% 29.75 in 10.0 mi SW 9.2 mph - N/A   Scattered Clouds
6:54 AM 73.0 °F - 64.9 °F 76% 29.75 in 10.0 mi WSW 12.7 mph - N/A   Mostly Cloudy
7:54 AM 73.9 °F - 66.0 °F 76% 29.76 in 10.0 mi SW 13.8 mph 24.2 mph N/A   Scattered Clouds
8:54 AM 75.0 °F - 66.0 °F 73% 29.77 in 10.0 mi SW 16.1 mph 23.0 mph N/A   Partly Cloudy
9:54 AM 77.0 °F - 66.9 °F 71% 29.77 in 10.0 mi SW 17.3 mph - N/A   Partly Cloudy
10:54 AM 80.1 °F 82.7 °F 68.0 °F 67% 29.77 in 10.0 mi SW 18.4 mph - N/A   Partly Cloudy
11:54 AM 81.0 °F 83.8 °F 68.0 °F 65% 29.77 in 10.0 mi SW 17.3 mph 24.2 mph N/A   Scattered Clouds
12:54 PM 81.0 °F 84.1 °F 69.1 °F 67% 29.75 in 10.0 mi SW 16.1 mph 24.2 mph N/A   Mostly Cloudy
1:54 PM 82.9 °F 86.5 °F 69.1 °F 63% 29.76 in 10.0 mi SW 15.0 mph 25.3 mph N/A   Mostly Cloudy
2:54 PM 84.9 °F 87.6 °F 66.9 °F 55% 29.76 in 10.0 mi WSW 18.4 mph 27.6 mph N/A   Mostly Cloudy
3:54 PM 84.0 °F 87.0 °F 68.0 °F 58% 29.75 in 10.0 mi SSW 16.1 mph 28.8 mph N/A   Mostly Cloudy
4:54 PM 84.9 °F 86.6 °F 64.9 °F 51% 29.73 in 10.0 mi SSW 18.4 mph 27.6 mph N/A   Mostly Cloudy
5:54 PM 84.9 °F 86.1 °F 64.0 °F 49% 29.74 in 10.0 mi WSW 18.4 mph 32.2 mph N/A   Mostly Cloudy
6:54 PM 84.0 °F 84.9 °F 63.0 °F 49% 29.72 in 10.0 mi WSW 15.0 mph - N/A   Mostly Cloudy
7:54 PM 82.0 °F 83.1 °F 63.0 °F 52% 29.68 in 10.0 mi SSW 15.0 mph - N/A   Mostly Cloudy
8:54 PM 80.1 °F 81.5 °F 63.0 °F 56% 29.70 in 10.0 mi South 6.9 mph - N/A   Scattered Clouds
9:54 PM 78.1 °F - 64.9 °F 64% 29.72 in 10.0 mi SSW 9.2 mph - N/A   Scattered Clouds
10:54 PM 75.9 °F - 66.0 °F 71% 29.73 in 10.0 mi SSW 8.1 mph - N/A   Scattered Clouds
11:54 PM 75.0 °F - 66.0 °F 73% 29.75 in 10.0 mi SW 6.9 mph - N/A   Mostly Cloudy